START_TIME,STEP,MOV.,E45,t_acc.,ALAR?,t_acc.,A12,t_acc.,A24,t_acc.
1979-08-06 18:00:24.800 ,0,1,1.,4.8,228.,4.8,0.,4.8,0.,4.8
1979-08-06 18:00:29.600 ,0,1,2.,4.8,244.,4.8,0.,4.8,0.,4.8
1979-08-06 18:00:34.400 ,0,1,4.,4.8,240.,4.8,0.,4.8,0.,4.8
1979-08-06 18:00:39.200 ,0,1,2.,4.8,228.,4.8,0.,4.8,0.,4.8
1979-08-06 18:00:44.000 ,0,1,2.,4.8,248.,4.8,0.,4.8,0.,4.8
1979-08-06 18:00:48.800 ,4,1,2.,4.8,256.,4.8,0.,4.8,0.,4.8
1979-08-06 18:00:53.600 ,4,1,4.,4.8,228.,4.8,0.,4.8,0.,4.8
1979-08-06 18:00:58.400 ,4,1,4.,4.8,244.,4.8,0.,4.8,0.,4.8
1979-08-06 18:01:03.200 ,4,1,5.,4.8,220.,4.8,0.,4.8,0.,4.8
1979-08-06 18:01:08.000 ,4,1,6.,4.8,264.,4.8,0.,4.8,0.,4.8
1979-08-06 18:01:12.800 ,7,1,5.,4.8,236.,4.8,0.,4.8,0.,4.8
1979-08-06 18:01:17.600 ,7,1,3.,4.8,256.,4.8,0.,4.8,0.,4.8
1979-08-06 18:01:22.400 ,7,1,2.,4.8,236.,4.8,0.,4.8,0.,4.8
1979-08-06 18:01:27.200 ,7,1,2.,4.8,220.,4.8,0.,4.8,0.,4.8
1979-08-06 18:01:32.000 ,7,1,2.,4.8,256.,4.8,0.,4.8,0.,4.8
1979-08-06 18:01:36.800 ,3,1,4.,4.8,232.,4.8,0.,4.8,0.,4.8
1979-08-06 18:01:41.600 ,3,1,2.,4.8,248.,4.8,0.,4.8,0.,4.8
1979-08-06 18:01:46.400 ,3,1,2.,4.8,280.,4.8,0.,4.8,0.,4.8
1979-08-06 18:01:51.200 ,3,1,8.,4.8,240.,4.8,0.,4.8,0.,4.8
1979-08-06 18:01:56.000 ,3,1,2.,4.8,228.,4.8,0.,4.8,0.,4.8
1979-08-06 18:02:00.800 ,0,1,1.,4.8,224.,4.8,0.,4.8,0.,4.8
1979-08-06 18:02:05.600 ,0,1,4.,4.8,212.,4.8,0.,4.8,0.,4.8
1979-08-06 18:02:10.400 ,0,1,9.,4.8,228.,4.8,0.,4.8,0.,4.8
1979-08-06 18:02:15.200 ,0,1,3.,4.8,264.,4.8,0.,4.8,0.,4.8
1979-08-06 18:02:20.000 ,0,1,3.,4.8,216.,4.8,0.,4.8,0.,4.8
1979-08-06 18:02:24.800 ,4,1,0.,4.8,252.,4.8,0.,4.8,0.,4.8
1979-08-06 18:02:29.600 ,4,1,5.,4.8,232.,4.8,0.,4.8,0.,4.8
1979-08-06 18:02:34.400 ,4,1,3.,4.8,220.,4.8,0.,4.8,0.,4.8
1979-08-06 18:02:39.200 ,4,1,4.,4.8,232.,4.8,0.,4.8,0.,4.8
1979-08-06 18:02:44.000 ,4,1,8.,4.8,256.,4.8,0.,4.8,0.,4.8
1979-08-06 18:02:48.800 ,7,1,2.,4.8,232.,4.8,0.,4.8,0.,4.8
1979-08-06 18:02:53.600 ,7,1,1.,4.8,256.,4.8,0.,4.8,0.,4.8
1979-08-06 18:02:58.400 ,7,1,2.,4.8,240.,4.8,0.,4.8,0.,4.8
1979-08-06 18:03:03.200 ,7,1,4.,4.8,236.,4.8,0.,4.8,0.,4.8
1979-08-06 18:03:08.000 ,7,1,4.,4.8,224.,4.8,0.,4.8,0.,4.8
1979-08-06 18:03:12.800 ,3,1,4.,4.8,220.,4.8,0.,4.8,0.,4.8
1979-08-06 18:03:17.600 ,3,1,2.,4.8,228.,4.8,0.,4.8,0.,4.8
1979-08-06 18:03:22.400 ,3,1,4.,4.8,252.,4.8,0.,4.8,0.,4.8
1979-08-06 18:03:27.200 ,3,1,4.,4.8,248.,4.8,0.,4.8,0.,4.8
1979-08-06 18:03:32.000 ,3,1,1.,4.8,232.,4.8,0.,4.8,0.,4.8
1979-08-06 18:03:36.800 ,0,1,3.,4.8,228.,4.8,0.,4.8,1.,4.8
1979-08-06 18:03:41.600 ,0,1,1.,4.8,240.,4.8,0.,4.8,0.,4.8
1979-08-06 18:03:46.400 ,0,1,5.,4.8,228.,4.8,0.,4.8,0.,4.8
1979-08-06 18:03:51.200 ,0,1,0.,4.8,264.,4.8,0.,4.8,0.,4.8
1979-08-06 18:03:56.000 ,0,1,0.,4.8,232.,4.8,0.,4.8,0.,4.8
1979-08-06 18:04:00.800 ,4,1,3.,4.8,216.,4.8,0.,4.8,0.,4.8
1979-08-06 18:04:05.600 ,4,1,5.,4.8,252.,4.8,0.,4.8,0.,4.8
1979-08-06 18:04:10.400 ,4,1,2.,4.8,236.,4.8,0.,4.8,0.,4.8
1979-08-06 18:04:15.200 ,4,1,3.,4.8,240.,4.8,0.,4.8,0.,4.8
1979-08-06 18:04:20.000 ,4,1,4.,4.8,256.,4.8,0.,4.8,0.,4.8
1979-08-06 18:04:24.800 ,7,1,2.,4.8,252.,4.8,0.,4.8,0.,4.8
1979-08-06 18:04:29.600 ,7,1,4.,4.8,272.,4.8,0.,4.8,0.,4.8
1979-08-06 18:04:34.400 ,7,1,7.,4.8,216.,4.8,0.,4.8,0.,4.8
1979-08-06 18:04:39.200 ,7,1,4.,4.8,244.,4.8,0.,4.8,0.,4.8
1979-08-06 18:04:44.000 ,7,1,2.,4.8,208.,4.8,0.,4.8,0.,4.8
1979-08-06 18:04:48.800 ,3,1,6.,4.8,252.,4.8,0.,4.8,0.,4.8
1979-08-06 18:04:53.600 ,3,1,6.,4.8,240.,4.8,0.,4.8,0.,4.8
1979-08-06 18:04:58.400 ,3,1,3.,4.8,232.,4.8,0.,4.8,0.,4.8
1979-08-06 18:05:03.200 ,3,1,4.,4.8,252.,4.8,0.,4.8,0.,4.8
1979-08-06 18:05:08.000 ,3,1,1.,4.8,192.,4.8,0.,4.8,0.,4.8
1979-08-06 18:05:12.800 ,0,1,5.,4.8,252.,4.8,0.,4.8,0.,4.8
1979-08-06 18:05:17.600 ,0,1,1.,4.8,228.,4.8,0.,4.8,0.,4.8
1979-08-06 18:05:22.400 ,0,1,4.,4.8,264.,4.8,0.,4.8,0.,4.8
1979-08-06 18:05:27.200 ,0,1,2.,4.8,240.,4.8,0.,4.8,0.,4.8
1979-08-06 18:05:32.000 ,0,1,2.,4.8,232.,4.8,0.,4.8,0.,4.8
1979-08-06 18:05:36.800 ,0,0,2.,4.8,232.,4.8,0.,4.8,0.,4.8
1979-08-06 18:05:41.600 ,0,0,5.,4.8,236.,4.8,0.,4.8,0.,4.8
1979-08-06 18:05:46.400 ,0,0,5.,4.8,216.,4.8,0.,4.8,0.,4.8
1979-08-06 18:05:51.200 ,0,0,2.,4.8,272.,4.8,0.,4.8,0.,4.8
1979-08-06 18:05:56.000 ,0,0,5.,4.8,232.,4.8,0.,4.8,0.,4.8
1979-08-06 18:06:00.800 ,0,0,2.,4.8,256.,4.8,0.,4.8,0.,4.8
1979-08-06 18:06:05.600 ,0,0,2.,4.8,224.,4.8,0.,4.8,0.,4.8
1979-08-06 18:06:10.400 ,0,0,1.,4.8,228.,4.8,0.,4.8,0.,4.8
1979-08-06 18:06:15.200 ,0,0,1.,4.8,224.,4.8,0.,4.8,0.,4.8
1979-08-06 18:06:20.000 ,0,0,4.,4.8,236.,4.8,0.,4.8,0.,4.8
1979-08-06 18:06:24.800 ,5,0,5.,4.8,248.,4.8,0.,4.8,0.,4.8
1979-08-06 18:06:29.600 ,5,0,7.,4.8,232.,4.8,0.,4.8,0.,4.8
1979-08-06 18:06:34.400 ,5,0,4.,4.8,228.,4.8,0.,4.8,0.,4.8
1979-08-06 18:06:39.200 ,5,0,6.,4.8,236.,4.8,0.,4.8,0.,4.8
1979-08-06 18:06:44.000 ,5,0,3.,4.8,272.,4.8,0.,4.8,0.,4.8
1979-08-06 18:06:48.800 ,5,0,2.,4.8,244.,4.8,0.,4.8,0.,4.8
1979-08-06 18:06:53.600 ,5,0,3.,4.8,236.,4.8,0.,4.8,0.,4.8
1979-08-06 18:06:58.400 ,5,0,6.,4.8,248.,4.8,0.,4.8,0.,4.8
1979-08-06 18:07:03.200 ,5,0,2.,4.8,236.,4.8,0.,4.8,0.,4.8
1979-08-06 18:07:08.000 ,5,0,3.,4.8,244.,4.8,0.,4.8,0.,4.8
1979-08-06 18:07:12.800 ,4,0,6.,4.8,208.,4.8,0.,4.8,0.,4.8
1979-08-06 18:07:17.600 ,4,0,1.,4.8,228.,4.8,0.,4.8,0.,4.8
1979-08-06 18:07:22.400 ,4,0,6.,4.8,224.,4.8,0.,4.8,0.,4.8
1979-08-06 18:07:27.200 ,4,0,2.,4.8,256.,4.8,0.,4.8,1.,4.8
1979-08-06 18:07:32.000 ,4,0,1.,4.8,212.,4.8,0.,4.8,0.,4.8
1979-08-06 18:07:36.800 ,4,0,2.,4.8,224.,4.8,0.,4.8,0.,4.8
1979-08-06 18:07:41.600 ,4,0,0.,4.8,216.,4.8,0.,4.8,0.,4.8
1979-08-06 18:07:46.400 ,4,0,2.,4.8,244.,4.8,0.,4.8,0.,4.8
1979-08-06 18:07:51.200 ,4,0,3.,4.8,228.,4.8,0.,4.8,0.,4.8
1979-08-06 18:07:56.000 ,4,0,1.,4.8,220.,4.8,0.,4.8,0.,4.8
1979-08-06 18:08:00.800 ,3,0,2.,4.8,228.,4.8,0.,4.8,0.,4.8
1979-08-06 18:08:05.600 ,3,0,5.,4.8,244.,4.8,0.,4.8,0.,4.8
1979-08-06 18:08:10.400 ,3,0,1.,4.8,228.,4.8,0.,4.8,0.,4.8
1979-08-06 18:08:15.200 ,3,0,3.,4.8,216.,4.8,0.,4.8,0.,4.8
1979-08-06 18:08:20.000 ,3,0,2.,4.8,224.,4.8,0.,4.8,0.,4.8
1979-08-06 18:08:24.800 ,3,0,2.,4.8,232.,4.8,0.,4.8,0.,4.8
1979-08-06 18:08:29.600 ,3,0,4.,4.8,224.,4.8,1.,4.8,0.,4.8
1979-08-06 18:08:34.400 ,3,0,2.,4.8,232.,4.8,0.,4.8,0.,4.8
1979-08-06 18:08:39.200 ,3,0,2.,4.8,256.,4.8,0.,4.8,0.,4.8
1979-08-06 18:08:44.000 ,3,0,1.,4.8,236.,4.8,0.,4.8,0.,4.8
1979-08-06 18:08:48.800 ,2,0,5.,4.8,248.,4.8,0.,4.8,0.,4.8
1979-08-06 18:08:53.600 ,2,0,1.,4.8,224.,4.8,0.,4.8,0.,4.8
1979-08-06 18:08:58.400 ,2,0,3.,4.8,220.,4.8,0.,4.8,0.,4.8
1979-08-06 18:09:03.200 ,2,0,4.,4.8,216.,4.8,0.,4.8,0.,4.8
1979-08-06 18:09:08.000 ,2,0,4.,4.8,216.,4.8,0.,4.8,0.,4.8
1979-08-06 18:09:12.800 ,2,0,2.,4.8,240.,4.8,0.,4.8,0.,4.8
1979-08-06 18:09:17.600 ,2,0,5.,4.8,204.,4.8,0.,4.8,0.,4.8
1979-08-06 18:09:22.400 ,2,0,0.,4.8,244.,4.8,0.,4.8,0.,4.8
1979-08-06 18:09:27.200 ,2,0,2.,4.8,196.,4.8,0.,4.8,0.,4.8
1979-08-06 18:09:32.000 ,2,0,3.,4.8,192.,4.8,0.,4.8,0.,4.8
1979-08-06 18:09:36.800 ,1,0,4.,4.8,248.,4.8,0.,4.8,0.,4.8
1979-08-06 18:09:41.600 ,1,0,2.,4.8,212.,4.8,0.,4.8,0.,4.8
1979-08-06 18:09:46.400 ,1,0,2.,4.8,220.,4.8,0.,4.8,0.,4.8
1979-08-06 18:09:51.200 ,1,0,3.,4.8,228.,4.8,0.,4.8,0.,4.8
1979-08-06 18:09:56.000 ,1,0,2.,4.8,232.,4.8,0.,4.8,0.,4.8
1979-08-06 18:10:00.800 ,1,0,5.,4.8,240.,4.8,0.,4.8,0.,4.8
1979-08-06 18:10:05.600 ,1,0,0.,4.8,236.,4.8,0.,4.8,0.,4.8
1979-08-06 18:10:10.400 ,1,0,3.,4.8,200.,4.8,0.,4.8,0.,4.8
1979-08-06 18:10:15.200 ,1,0,3.,4.8,220.,4.8,0.,4.8,0.,4.8
1979-08-06 18:10:20.000 ,1,0,1.,4.8,236.,4.8,0.,4.8,0.,4.8
1979-08-06 18:10:24.800 ,0,0,2.,4.8,220.,4.8,0.,4.8,0.,4.8
1979-08-06 18:10:29.600 ,0,0,3.,4.8,200.,4.8,0.,4.8,0.,4.8
1979-08-06 18:10:34.400 ,0,0,3.,4.8,216.,4.8,0.,4.8,0.,4.8
1979-08-06 18:10:39.200 ,0,0,2.,4.8,224.,4.8,0.,4.8,0.,4.8
1979-08-06 18:10:44.000 ,0,0,2.,4.8,232.,4.8,0.,4.8,0.,4.8
1979-08-06 18:10:48.800 ,0,0,4.,4.8,220.,4.8,0.,4.8,0.,4.8
1979-08-06 18:10:53.600 ,0,0,4.,4.8,244.,4.8,0.,4.8,0.,4.8
1979-08-06 18:10:58.400 ,0,0,3.,4.8,256.,4.8,0.,4.8,0.,4.8
1979-08-06 18:11:03.200 ,0,0,5.,4.8,228.,4.8,0.,4.8,0.,4.8
1979-08-06 18:11:08.000 ,0,0,1.,4.8,256.,4.8,0.,4.8,0.,4.8
1979-08-06 18:11:12.800 ,0,0,4.,4.8,244.,4.8,0.,4.8,0.,4.8
1979-08-06 18:11:17.600 ,0,0,5.,4.8,212.,4.8,0.,4.8,0.,4.8
1979-08-06 18:11:22.400 ,0,0,,0,,0,,0,,0
1979-08-06 18:11:27.200 ,0,0,,0,,0,,0,,0
1979-08-06 18:11:32.000 ,0,0,,0,,0,,0,,0
1979-08-06 18:11:36.800 ,0,0,,0,,0,,0,,0
1979-08-06 18:11:41.600 ,0,0,,0,,0,,0,,0
1979-08-06 18:11:46.400 ,0,0,,0,,0,,0,,0
1979-08-06 18:11:51.200 ,0,0,,0,,0,,0,,0
1979-08-06 18:11:56.000 ,0,0,,0,,0,,0,,0
1979-08-06 18:11:36.800 ,0,0,3.,4.8,232.,4.8,0.,4.8,1.,4.8
1979-08-06 18:11:41.600 ,0,0,3.,4.8,212.,4.8,0.,4.8,0.,4.8
1979-08-06 18:11:46.400 ,0,0,5.,4.8,220.,4.8,0.,4.8,0.,4.8
1979-08-06 18:11:51.200 ,0,0,2.,4.8,228.,4.8,0.,4.8,0.,4.8
1979-08-06 18:11:56.000 ,0,0,4.,4.8,204.,4.8,0.,4.8,0.,4.8
1979-08-06 18:12:00.800 ,1,0,1.,4.8,220.,4.8,0.,4.8,0.,4.8
1979-08-06 18:12:05.600 ,1,0,5.,4.8,212.,4.8,0.,4.8,1.,4.8
1979-08-06 18:12:10.400 ,1,0,1.,4.8,232.,4.8,0.,4.8,0.,4.8
1979-08-06 18:12:15.200 ,1,0,2.,4.8,216.,4.8,0.,4.8,0.,4.8
1979-08-06 18:12:20.000 ,1,0,2.,4.8,216.,4.8,0.,4.8,0.,4.8
1979-08-06 18:12:24.800 ,1,0,4.,4.8,236.,4.8,0.,4.8,0.,4.8
1979-08-06 18:12:29.600 ,1,0,3.,4.8,240.,4.8,0.,4.8,0.,4.8
1979-08-06 18:12:34.400 ,1,0,1.,4.8,236.,4.8,0.,4.8,0.,4.8
1979-08-06 18:12:39.200 ,1,0,3.,4.8,220.,4.8,0.,4.8,0.,4.8
1979-08-06 18:12:44.000 ,1,0,3.,4.8,232.,4.8,0.,4.8,0.,4.8
1979-08-06 18:12:48.800 ,2,0,2.,4.8,256.,4.8,0.,4.8,0.,4.8
1979-08-06 18:12:53.600 ,2,0,4.,4.8,252.,4.8,0.,4.8,1.,4.8
1979-08-06 18:12:58.400 ,2,0,2.,4.8,220.,4.8,0.,4.8,0.,4.8
1979-08-06 18:13:03.200 ,2,0,2.,4.8,224.,4.8,0.,4.8,0.,4.8
1979-08-06 18:13:08.000 ,2,0,1.,4.8,228.,4.8,0.,4.8,0.,4.8
1979-08-06 18:13:12.800 ,2,0,4.,4.8,232.,4.8,0.,4.8,0.,4.8
1979-08-06 18:13:17.600 ,2,0,8.,4.8,228.,4.8,0.,4.8,0.,4.8
1979-08-06 18:13:22.400 ,2,0,2.,4.8,248.,4.8,0.,4.8,0.,4.8
1979-08-06 18:13:27.200 ,2,0,1.,4.8,228.,4.8,0.,4.8,0.,4.8
1979-08-06 18:13:32.000 ,2,0,2.,4.8,216.,4.8,0.,4.8,0.,4.8
1979-08-06 18:13:36.800 ,3,0,5.,4.8,244.,4.8,0.,4.8,0.,4.8
1979-08-06 18:13:41.600 ,3,0,0.,4.8,244.,4.8,0.,4.8,0.,4.8
1979-08-06 18:13:46.400 ,3,0,1.,4.8,248.,4.8,0.,4.8,0.,4.8
1979-08-06 18:13:51.200 ,3,0,3.,4.8,240.,4.8,0.,4.8,0.,4.8
1979-08-06 18:13:56.000 ,3,0,1.,4.8,212.,4.8,0.,4.8,0.,4.8
1979-08-06 18:14:00.800 ,3,0,1.,4.8,208.,4.8,0.,4.8,0.,4.8
1979-08-06 18:14:05.600 ,3,0,3.,4.8,216.,4.8,0.,4.8,0.,4.8
1979-08-06 18:14:10.400 ,3,0,0.,4.8,228.,4.8,0.,4.8,0.,4.8
1979-08-06 18:14:15.200 ,3,0,4.,4.8,208.,4.8,0.,4.8,0.,4.8
1979-08-06 18:14:20.000 ,3,0,2.,4.8,212.,4.8,0.,4.8,0.,4.8
1979-08-06 18:14:24.800 ,4,0,1.,4.8,232.,4.8,0.,4.8,0.,4.8
1979-08-06 18:14:29.600 ,4,0,0.,4.8,220.,4.8,0.,4.8,0.,4.8
1979-08-06 18:14:34.400 ,4,0,4.,4.8,244.,4.8,0.,4.8,0.,4.8
1979-08-06 18:14:39.200 ,4,0,4.,4.8,236.,4.8,0.,4.8,0.,4.8
1979-08-06 18:14:44.000 ,4,0,4.,4.8,248.,4.8,0.,4.8,0.,4.8
1979-08-06 18:14:48.800 ,4,0,4.,4.8,220.,4.8,0.,4.8,0.,4.8
1979-08-06 18:14:53.600 ,4,0,1.,4.8,220.,4.8,0.,4.8,0.,4.8
1979-08-06 18:14:58.400 ,4,0,1.,4.8,244.,4.8,0.,4.8,0.,4.8
1979-08-06 18:15:03.200 ,4,0,4.,4.8,212.,4.8,0.,4.8,0.,4.8
1979-08-06 18:15:08.000 ,4,0,3.,4.8,216.,4.8,0.,4.8,0.,4.8
1979-08-06 18:15:12.800 ,5,0,6.,4.8,200.,4.8,0.,4.8,0.,4.8
1979-08-06 18:15:17.600 ,5,0,4.,4.8,248.,4.8,0.,4.8,0.,4.8
1979-08-06 18:15:22.400 ,5,0,2.,4.8,236.,4.8,0.,4.8,0.,4.8
1979-08-06 18:15:27.200 ,5,0,3.,4.8,232.,4.8,0.,4.8,0.,4.8
1979-08-06 18:15:32.000 ,5,0,3.,4.8,232.,4.8,0.,4.8,0.,4.8
1979-08-06 18:15:36.800 ,5,0,1.,4.8,228.,4.8,0.,4.8,0.,4.8
1979-08-06 18:15:41.600 ,5,0,3.,4.8,256.,4.8,0.,4.8,0.,4.8
1979-08-06 18:15:46.400 ,5,0,4.,4.8,244.,4.8,0.,4.8,0.,4.8
1979-08-06 18:15:51.200 ,5,0,3.,4.8,232.,4.8,0.,4.8,0.,4.8
1979-08-06 18:15:56.000 ,5,0,4.,4.8,236.,4.8,0.,4.8,0.,4.8
1979-08-06 18:16:00.800 ,6,0,4.,4.8,232.,4.8,0.,4.8,0.,4.8
1979-08-06 18:16:05.600 ,6,0,2.,4.8,228.,4.8,0.,4.8,0.,4.8
1979-08-06 18:16:10.400 ,6,0,4.,4.8,236.,4.8,0.,4.8,0.,4.8
1979-08-06 18:16:15.200 ,6,0,2.,4.8,228.,4.8,0.,4.8,0.,4.8
1979-08-06 18:16:20.000 ,6,0,3.,4.8,228.,4.8,0.,4.8,0.,4.8
1979-08-06 18:16:24.800 ,6,0,5.,4.8,236.,4.8,0.,4.8,0.,4.8
1979-08-06 18:16:29.600 ,6,0,4.,4.8,208.,4.8,0.,4.8,0.,4.8
1979-08-06 18:16:34.400 ,6,0,7.,4.8,236.,4.8,0.,4.8,0.,4.8
1979-08-06 18:16:39.200 ,6,0,4.,4.8,236.,4.8,0.,4.8,0.,4.8
1979-08-06 18:16:44.000 ,6,0,4.,4.8,224.,4.8,0.,4.8,0.,4.8
1979-08-06 18:16:48.800 ,7,0,5.,4.8,220.,4.8,0.,4.8,0.,4.8
1979-08-06 18:16:53.600 ,7,0,1.,4.8,212.,4.8,0.,4.8,0.,4.8
1979-08-06 18:16:58.400 ,7,0,2.,4.8,204.,4.8,0.,4.8,0.,4.8
1979-08-06 18:17:03.200 ,7,0,3.,4.8,228.,4.8,0.,4.8,0.,4.8
1979-08-06 18:17:08.000 ,7,0,2.,4.8,192.,4.8,0.,4.8,0.,4.8
1979-08-06 18:17:12.800 ,7,0,3.,4.8,236.,4.8,0.,4.8,0.,4.8
1979-08-06 18:17:17.600 ,7,0,4.,4.8,208.,4.8,0.,4.8,0.,4.8
1979-08-06 18:17:22.400 ,7,0,2.,4.8,220.,4.8,0.,4.8,0.,4.8
1979-08-06 18:17:27.200 ,7,0,2.,4.8,220.,4.8,0.,4.8,0.,4.8
1979-08-06 18:17:32.000 ,7,0,2.,4.8,212.,4.8,0.,4.8,0.,4.8
1979-08-06 18:17:36.800 ,7,0,3.,4.8,220.,4.8,0.,4.8,0.,4.8
1979-08-06 18:17:41.600 ,7,0,1.,4.8,264.,4.8,0.,4.8,0.,4.8
1979-08-06 18:17:46.400 ,7,0,0.,4.8,224.,4.8,0.,4.8,0.,4.8
1979-08-06 18:17:51.200 ,7,0,5.,4.8,240.,4.8,0.,4.8,0.,4.8
1979-08-06 18:17:56.000 ,7,0,3.,4.8,204.,4.8,0.,4.8,0.,4.8
1979-08-06 18:18:00.800 ,7,0,3.,4.8,212.,4.8,0.,4.8,0.,4.8
1979-08-06 18:18:05.600 ,7,0,3.,4.8,252.,4.8,0.,4.8,0.,4.8
1979-08-06 18:18:10.400 ,7,0,3.,4.8,220.,4.8,0.,4.8,0.,4.8
1979-08-06 18:18:15.200 ,7,0,2.,4.8,236.,4.8,0.,4.8,0.,4.8
1979-08-06 18:18:20.000 ,7,0,1.,4.8,236.,4.8,0.,4.8,0.,4.8
1979-08-06 18:18:24.800 ,6,0,1.,4.8,240.,4.8,0.,4.8,0.,4.8
1979-08-06 18:18:29.600 ,6,0,5.,4.8,212.,4.8,0.,4.8,0.,4.8
1979-08-06 18:18:34.400 ,6,0,2.,4.8,232.,4.8,0.,4.8,0.,4.8
1979-08-06 18:18:39.200 ,6,0,1.,4.8,216.,4.8,0.,4.8,0.,4.8
1979-08-06 18:18:44.000 ,6,0,6.,4.8,244.,4.8,0.,4.8,0.,4.8
1979-08-06 18:18:48.800 ,6,0,3.,4.8,228.,4.8,0.,4.8,0.,4.8
1979-08-06 18:18:53.600 ,6,0,3.,4.8,208.,4.8,0.,4.8,0.,4.8
1979-08-06 18:18:58.400 ,6,0,3.,4.8,216.,4.8,0.,4.8,0.,4.8
1979-08-06 18:19:03.200 ,6,0,2.,4.8,236.,4.8,0.,4.8,0.,4.8
1979-08-06 18:19:08.000 ,6,0,4.,4.8,236.,4.8,0.,4.8,0.,4.8
1979-08-06 18:19:12.800 ,5,0,2.,4.8,244.,4.8,0.,4.8,0.,4.8
1979-08-06 18:19:17.600 ,5,0,5.,4.8,224.,4.8,0.,4.8,0.,4.8
1979-08-06 18:19:22.400 ,5,0,7.,4.8,208.,4.8,0.,4.8,0.,4.8
1979-08-06 18:19:27.200 ,5,0,5.,4.8,236.,4.8,0.,4.8,0.,4.8
1979-08-06 18:19:32.000 ,5,0,4.,4.8,224.,4.8,0.,4.8,0.,4.8
1979-08-06 18:19:36.800 ,5,0,0.,4.8,228.,4.8,0.,4.8,0.,4.8
1979-08-06 18:19:41.600 ,5,0,3.,4.8,224.,4.8,0.,4.8,0.,4.8
1979-08-06 18:19:46.400 ,5,0,2.,4.8,204.,4.8,0.,4.8,0.,4.8
1979-08-06 18:19:51.200 ,5,0,3.,4.8,224.,4.8,0.,4.8,0.,4.8
1979-08-06 18:19:56.000 ,5,0,6.,4.8,196.,4.8,0.,4.8,0.,4.8
1979-08-06 18:20:00.800 ,4,0,1.,4.8,248.,4.8,0.,4.8,0.,4.8
1979-08-06 18:20:05.600 ,4,0,5.,4.8,244.,4.8,0.,4.8,0.,4.8
1979-08-06 18:20:10.400 ,4,0,5.,4.8,224.,4.8,0.,4.8,0.,4.8
1979-08-06 18:20:15.200 ,4,0,1.,4.8,224.,4.8,0.,4.8,0.,4.8
1979-08-06 18:20:20.000 ,4,0,5.,4.8,224.,4.8,0.,4.8,0.,4.8
1979-08-06 18:20:24.800 ,4,0,4.,4.8,208.,4.8,0.,4.8,0.,4.8
1979-08-06 18:20:29.600 ,4,0,6.,4.8,244.,4.8,0.,4.8,0.,4.8
1979-08-06 18:20:34.400 ,4,0,4.,4.8,224.,4.8,0.,4.8,0.,4.8
1979-08-06 18:20:39.200 ,4,0,4.,4.8,232.,4.8,0.,4.8,0.,4.8
1979-08-06 18:20:44.000 ,4,0,4.,4.8,208.,4.8,0.,4.8,0.,4.8
1979-08-06 18:20:48.800 ,3,0,0.,4.8,224.,4.8,0.,4.8,0.,4.8
1979-08-06 18:20:53.600 ,3,0,3.,4.8,204.,4.8,0.,4.8,0.,4.8
1979-08-06 18:20:58.400 ,3,0,3.,4.8,224.,4.8,0.,4.8,0.,4.8
1979-08-06 18:21:03.200 ,3,0,2.,4.8,236.,4.8,0.,4.8,0.,4.8
1979-08-06 18:21:08.000 ,3,0,1.,4.8,228.,4.8,0.,4.8,0.,4.8
1979-08-06 18:21:12.800 ,3,0,3.,4.8,228.,4.8,0.,4.8,0.,4.8
1979-08-06 18:21:17.600 ,3,0,0.,4.8,200.,4.8,0.,4.8,0.,4.8
1979-08-06 18:21:22.400 ,3,0,5.,4.8,232.,4.8,0.,4.8,0.,4.8
1979-08-06 18:21:27.200 ,3,0,1.,4.8,224.,4.8,0.,4.8,0.,4.8
1979-08-06 18:21:32.000 ,3,0,2.,4.8,224.,4.8,0.,4.8,0.,4.8
1979-08-06 18:21:36.800 ,2,0,2.,4.8,240.,4.8,0.,4.8,0.,4.8
1979-08-06 18:21:41.600 ,2,0,2.,4.8,232.,4.8,0.,4.8,0.,4.8
1979-08-06 18:21:46.400 ,2,0,6.,4.8,248.,4.8,0.,4.8,0.,4.8
1979-08-06 18:21:51.200 ,2,0,1.,4.8,240.,4.8,0.,4.8,0.,4.8
1979-08-06 18:21:56.000 ,2,0,5.,4.8,208.,4.8,0.,4.8,0.,4.8
1979-08-06 18:22:00.800 ,2,0,3.,4.8,236.,4.8,0.,4.8,0.,4.8
1979-08-06 18:22:05.600 ,2,0,1.,4.8,248.,4.8,0.,4.8,0.,4.8
1979-08-06 18:22:10.400 ,2,0,3.,4.8,244.,4.8,0.,4.8,0.,4.8
1979-08-06 18:22:15.200 ,2,0,3.,4.8,240.,4.8,0.,4.8,0.,4.8
1979-08-06 18:22:20.000 ,2,0,1.,4.8,200.,4.8,0.,4.8,0.,4.8
1979-08-06 18:22:24.800 ,1,0,3.,4.8,192.,4.8,0.,4.8,0.,4.8
1979-08-06 18:22:29.600 ,1,0,6.,4.8,252.,4.8,0.,4.8,0.,4.8
1979-08-06 18:22:34.400 ,1,0,4.,4.8,232.,4.8,0.,4.8,0.,4.8
1979-08-06 18:22:39.200 ,1,0,2.,4.8,228.,4.8,0.,4.8,0.,4.8
1979-08-06 18:22:44.000 ,1,0,1.,4.8,224.,4.8,0.,4.8,0.,4.8
1979-08-06 18:22:48.800 ,1,0,2.,4.8,252.,4.8,0.,4.8,0.,4.8
1979-08-06 18:22:53.600 ,1,0,3.,4.8,216.,4.8,0.,4.8,0.,4.8
1979-08-06 18:22:58.400 ,1,0,5.,4.8,208.,4.8,0.,4.8,0.,4.8
1979-08-06 18:23:03.200 ,1,0,1.,4.8,228.,4.8,0.,4.8,0.,4.8
1979-08-06 18:23:08.000 ,1,0,2.,4.8,224.,4.8,0.,4.8,0.,4.8
1979-08-06 18:23:12.800 ,0,0,4.,4.8,228.,4.8,0.,4.8,0.,4.8
1979-08-06 18:23:17.600 ,0,0,2.,4.8,224.,4.8,0.,4.8,0.,4.8
1979-08-06 18:23:22.400 ,0,0,1.,4.8,220.,4.8,0.,4.8,0.,4.8
1979-08-06 18:23:27.200 ,0,0,1.,4.8,236.,4.8,0.,4.8,0.,4.8
1979-08-06 18:23:32.000 ,0,0,3.,4.8,204.,4.8,0.,4.8,0.,4.8
1979-08-06 18:23:36.800 ,0,0,0.,4.8,220.,4.8,0.,4.8,0.,4.8
1979-08-06 18:23:41.600 ,0,0,4.,4.8,216.,4.8,0.,4.8,0.,4.8
1979-08-06 18:23:46.400 ,0,0,3.,4.8,220.,4.8,0.,4.8,0.,4.8
1979-08-06 18:23:51.200 ,0,0,2.,4.8,188.,4.8,0.,4.8,0.,4.8
1979-08-06 18:23:56.000 ,0,0,3.,4.8,248.,4.8,0.,4.8,0.,4.8
1979-08-06 18:24:00.800 ,0,0,2.,4.8,204.,4.8,0.,4.8,0.,4.8
1979-08-06 18:24:05.600 ,0,0,4.,4.8,224.,4.8,0.,4.8,0.,4.8
1979-08-06 18:24:10.400 ,0,0,6.,4.8,252.,4.8,0.,4.8,0.,4.8
1979-08-06 18:24:15.200 ,0,0,6.,4.8,220.,4.8,0.,4.8,0.,4.8
1979-08-06 18:24:20.000 ,0,0,7.,4.8,232.,4.8,0.,4.8,0.,4.8
1979-08-06 18:24:24.800 ,0,0,7.,4.8,200.,4.8,0.,4.8,0.,4.8
1979-08-06 18:24:29.600 ,0,0,3.,4.8,216.,4.8,0.,4.8,0.,4.8
1979-08-06 18:24:34.400 ,0,0,2.,4.8,252.,4.8,0.,4.8,0.,4.8
1979-08-06 18:24:39.200 ,0,0,2.,4.8,228.,4.8,0.,4.8,0.,4.8
1979-08-06 18:24:44.000 ,0,0,1.,4.8,208.,4.8,0.,4.8,0.,4.8
1979-08-06 18:24:48.800 ,1,0,6.,4.8,240.,4.8,0.,4.8,0.,4.8
1979-08-06 18:24:53.600 ,1,0,3.,4.8,212.,4.8,0.,4.8,0.,4.8
1979-08-06 18:24:58.400 ,1,0,1.,4.8,200.,4.8,0.,4.8,0.,4.8
1979-08-06 18:25:03.200 ,1,0,1.,4.8,252.,4.8,0.,4.8,0.,4.8
1979-08-06 18:25:08.000 ,1,0,1.,4.8,252.,4.8,0.,4.8,0.,4.8
1979-08-06 18:25:12.800 ,1,0,3.,4.8,192.,4.8,0.,4.8,0.,4.8
1979-08-06 18:25:17.600 ,1,0,5.,4.8,200.,4.8,0.,4.8,0.,4.8
1979-08-06 18:25:22.400 ,1,0,2.,4.8,248.,4.8,0.,4.8,0.,4.8
1979-08-06 18:25:27.200 ,1,0,4.,4.8,204.,4.8,0.,4.8,0.,4.8
1979-08-06 18:25:32.000 ,1,0,5.,4.8,216.,4.8,0.,4.8,0.,4.8
1979-08-06 18:25:36.800 ,2,0,5.,4.8,232.,4.8,0.,4.8,0.,4.8
1979-08-06 18:25:41.600 ,2,0,1.,4.8,184.,4.8,0.,4.8,0.,4.8
1979-08-06 18:25:46.400 ,2,0,1.,4.8,200.,4.8,0.,4.8,0.,4.8
1979-08-06 18:25:51.200 ,2,0,4.,4.8,216.,4.8,0.,4.8,0.,4.8
1979-08-06 18:25:56.000 ,2,0,1.,4.8,200.,4.8,0.,4.8,0.,4.8
1979-08-06 18:26:00.800 ,2,0,0.,4.8,216.,4.8,0.,4.8,0.,4.8
1979-08-06 18:26:05.600 ,2,0,2.,4.8,208.,4.8,0.,4.8,0.,4.8
1979-08-06 18:26:10.400 ,2,0,5.,4.8,244.,4.8,0.,4.8,0.,4.8
1979-08-06 18:26:15.200 ,2,0,0.,4.8,200.,4.8,0.,4.8,0.,4.8
1979-08-06 18:26:20.000 ,2,0,2.,4.8,212.,4.8,0.,4.8,0.,4.8
1979-08-06 18:26:24.800 ,3,0,4.,4.8,184.,4.8,0.,4.8,0.,4.8
1979-08-06 18:26:29.600 ,3,0,1.,4.8,224.,4.8,0.,4.8,0.,4.8
1979-08-06 18:26:34.400 ,3,0,2.,4.8,212.,4.8,0.,4.8,0.,4.8
1979-08-06 18:26:39.200 ,3,0,4.,4.8,220.,4.8,0.,4.8,0.,4.8
1979-08-06 18:26:44.000 ,3,0,2.,4.8,228.,4.8,0.,4.8,0.,4.8
1979-08-06 18:26:48.800 ,3,0,0.,4.8,224.,4.8,0.,4.8,0.,4.8
1979-08-06 18:26:53.600 ,3,0,2.,4.8,204.,4.8,0.,4.8,0.,4.8
1979-08-06 18:26:58.400 ,3,0,1.,4.8,224.,4.8,0.,4.8,0.,4.8
1979-08-06 18:27:03.200 ,3,0,1.,4.8,212.,4.8,0.,4.8,0.,4.8
1979-08-06 18:27:08.000 ,3,0,1.,4.8,224.,4.8,0.,4.8,0.,4.8
1979-08-06 18:27:12.800 ,4,0,1.,4.8,236.,4.8,0.,4.8,0.,4.8
1979-08-06 18:27:17.600 ,4,0,1.,4.8,208.,4.8,0.,4.8,0.,4.8
1979-08-06 18:27:22.400 ,4,0,4.,4.8,240.,4.8,0.,4.8,0.,4.8
1979-08-06 18:27:27.200 ,4,0,3.,4.8,236.,4.8,0.,4.8,0.,4.8
1979-08-06 18:27:32.000 ,4,0,1.,4.8,204.,4.8,0.,4.8,0.,4.8
1979-08-06 18:27:36.800 ,4,0,4.,4.8,212.,4.8,0.,4.8,0.,4.8
1979-08-06 18:27:41.600 ,4,0,6.,4.8,220.,4.8,0.,4.8,0.,4.8
1979-08-06 18:27:46.400 ,4,0,2.,4.8,248.,4.8,0.,4.8,0.,4.8
1979-08-06 18:27:51.200 ,4,0,2.,4.8,220.,4.8,0.,4.8,0.,4.8
1979-08-06 18:27:56.000 ,4,0,3.,4.8,212.,4.8,0.,4.8,0.,4.8
1979-08-06 18:28:00.800 ,5,0,3.,4.8,252.,4.8,0.,4.8,0.,4.8
1979-08-06 18:28:05.600 ,5,0,1.,4.8,216.,4.8,0.,4.8,0.,4.8
1979-08-06 18:28:10.400 ,5,0,3.,4.8,228.,4.8,0.,4.8,0.,4.8
1979-08-06 18:28:15.200 ,5,0,3.,4.8,248.,4.8,0.,4.8,0.,4.8
1979-08-06 18:28:20.000 ,5,0,4.,4.8,212.,4.8,0.,4.8,0.,4.8
1979-08-06 18:28:24.800 ,5,0,1.,4.8,236.,4.8,0.,4.8,0.,4.8
1979-08-06 18:28:29.600 ,5,0,5.,4.8,240.,4.8,0.,4.8,0.,4.8
1979-08-06 18:28:34.400 ,5,0,6.,4.8,208.,4.8,0.,4.8,0.,4.8
1979-08-06 18:28:39.200 ,5,0,4.,4.8,240.,4.8,0.,4.8,0.,4.8
1979-08-06 18:28:44.000 ,5,0,4.,4.8,248.,4.8,0.,4.8,0.,4.8
1979-08-06 18:28:48.800 ,6,0,2.,4.8,204.,4.8,0.,4.8,0.,4.8
1979-08-06 18:28:53.600 ,6,0,4.,4.8,204.,4.8,0.,4.8,0.,4.8
1979-08-06 18:28:58.400 ,6,0,5.,4.8,224.,4.8,0.,4.8,0.,4.8
1979-08-06 18:29:03.200 ,6,0,0.,4.8,224.,4.8,0.,4.8,0.,4.8
1979-08-06 18:29:08.000 ,6,0,3.,4.8,216.,4.8,0.,4.8,0.,4.8
1979-08-06 18:29:12.800 ,6,0,2.,4.8,212.,4.8,0.,4.8,0.,4.8
1979-08-06 18:29:17.600 ,6,0,2.,4.8,208.,4.8,0.,4.8,0.,4.8
1979-08-06 18:29:22.400 ,6,0,1.,4.8,228.,4.8,0.,4.8,0.,4.8
1979-08-06 18:29:27.200 ,6,0,5.,4.8,236.,4.8,0.,4.8,0.,4.8
1979-08-06 18:29:32.000 ,6,0,1.,4.8,224.,4.8,0.,4.8,0.,4.8
1979-08-06 18:29:36.800 ,7,0,2.,4.8,224.,4.8,0.,4.8,0.,4.8
1979-08-06 18:29:41.600 ,7,0,2.,4.8,208.,4.8,0.,4.8,0.,4.8
1979-08-06 18:29:46.400 ,7,0,1.,4.8,188.,4.8,0.,4.8,0.,4.8
1979-08-06 18:29:51.200 ,7,0,3.,4.8,236.,4.8,0.,4.8,0.,4.8
1979-08-06 18:29:56.000 ,7,0,2.,4.8,240.,4.8,0.,4.8,1.,4.8
1979-08-06 18:30:00.800 ,7,0,3.,4.8,208.,4.8,0.,4.8,0.,4.8
1979-08-06 18:30:05.600 ,7,0,2.,4.8,204.,4.8,0.,4.8,0.,4.8
1979-08-06 18:30:10.400 ,7,0,1.,4.8,208.,4.8,0.,4.8,0.,4.8
1979-08-06 18:30:15.200 ,7,0,1.,4.8,240.,4.8,0.,4.8,0.,4.8
1979-08-06 18:30:20.000 ,7,0,5.,4.8,216.,4.8,0.,4.8,0.,4.8
1979-08-06 18:30:24.800 ,7,0,2.,4.8,228.,4.8,0.,4.8,0.,4.8
1979-08-06 18:30:29.600 ,7,0,1.,4.8,196.,4.8,0.,4.8,0.,4.8
1979-08-06 18:30:34.400 ,7,0,3.,4.8,232.,4.8,0.,4.8,0.,4.8
1979-08-06 18:30:39.200 ,7,0,2.,4.8,224.,4.8,0.,4.8,0.,4.8
1979-08-06 18:30:44.000 ,7,0,1.,4.8,232.,4.8,0.,4.8,0.,4.8
1979-08-06 18:30:48.800 ,7,0,3.,4.8,224.,4.8,0.,4.8,0.,4.8
1979-08-06 18:30:53.600 ,7,0,0.,4.8,216.,4.8,0.,4.8,0.,4.8
1979-08-06 18:30:58.400 ,7,0,0.,4.8,224.,4.8,0.,4.8,0.,4.8
1979-08-06 18:31:03.200 ,7,0,2.,4.8,220.,4.8,0.,4.8,0.,4.8
1979-08-06 18:31:08.000 ,7,0,0.,4.8,240.,4.8,0.,4.8,0.,4.8
1979-08-06 18:31:12.800 ,6,0,2.,4.8,208.,4.8,0.,4.8,0.,4.8
1979-08-06 18:31:17.600 ,6,0,0.,4.8,224.,4.8,0.,4.8,0.,4.8
1979-08-06 18:31:22.400 ,6,0,3.,4.8,224.,4.8,0.,4.8,0.,4.8
1979-08-06 18:31:27.200 ,6,0,3.,4.8,204.,4.8,0.,4.8,0.,4.8
1979-08-06 18:31:32.000 ,6,0,3.,4.8,220.,4.8,0.,4.8,0.,4.8
1979-08-06 18:31:36.800 ,6,0,3.,4.8,200.,4.8,0.,4.8,0.,4.8
1979-08-06 18:31:41.600 ,6,0,5.,4.8,228.,4.8,0.,4.8,0.,4.8
1979-08-06 18:31:46.400 ,6,0,1.,4.8,224.,4.8,0.,4.8,0.,4.8
1979-08-06 18:31:51.200 ,6,0,1.,4.8,232.,4.8,0.,4.8,0.,4.8
1979-08-06 18:31:56.000 ,6,0,5.,4.8,228.,4.8,0.,4.8,0.,4.8
1979-08-06 18:32:00.800 ,5,0,2.,4.8,248.,4.8,0.,4.8,0.,4.8